Tracking 20241 objects as of 27-Jan-2020
HD Live streaming from Space Station
objects crossing your sky now

SL-16 DEB

Track SL-16 DEB now!
10-day predictions


NORAD ID: 42248
Int'l Code: 1993-016DC
Perigee: 733.2 km
Apogee: 903.9 km
Inclination: 71.0 °
Period: 101.1 minutes
Semi major axis: 7189 km
RCS: Unknown
Launch date: March 26, 1993
Source: Commonwealth of Independent States (former USSR) (CIS)
Launch site: PLESETSK MISSILE AND SPACE COMPLEX (PKMTR)

Note: This is SATELLITE DEBRIS
aabbcc
Your satellite tracking list
Your tracking list is empty




NASA's NSSDC Master Catalog

Two Line Element Set (TLE):
1 42248U 93016DC  20024.63933869 +.00001273 +00000-0 +53315-3 0  9997
2 42248 070.9668 140.2866 0118701 104.7291 256.7027 14.24124984322653
Source of the keplerian elements: AFSPC